SOYUZ-MS 12 (44069 NORAD) Tracking and Keplerian Element Data

This shows tracking and keplerian element data for the satellite.

Feedback or suggestion? Click here.




ElementValue
Catalog44069
NameSOYUZ-MS 12
Epoch Orbit16163
Epoch Day80.50558613
Epoch Year2019
RAAN77.12
Inclination51.64
Eccentricity0.0003922
Argument of Perigee125.1463
Mean Anonmoly17.779
Mean Motion15.52834002
Decay Rate4.11E-06
L11 44069U 19013A 19080.50558613 .00000411 00000-0 13997-4 0 9997
L22 44069 51.6400 77.1200 0003922 125.1463 17.7790 15.52834002161634

Live tracking and technical data element details for SOYUZ-MS 12 (NORAD 44069). SOYUZ-MS 12 can be tracked NOW for your location showing map with azimuth and elevation plus other details from your city location.

Track the satellite on the map from your city or location and see movement details for azimuth, elevation, latitude, longitude, range, height, and movement on the map or in text.







IsCatalogInMostPopularTable: catalog: 44069, numindb: -1

Insert: records affected: 1


GetName: 44069 SOYUZ-MS 12

Hit Count: inserted at: Sat, 23 Mar 2019 00:35:42 GMT